{"data":{"norad_id":65098,"intl_designator":"2025-167W","name":"STARLINK-34764","alt_names":[],"object_type":"PAYLOAD","status":"ACTIVE","operator":null,"country":"US","launch_date":"2025-08-04","launch_site_code":"AFETR","launch_vehicle":null,"mission":null,"orbit_class":"UNKNOWN","rcs_meters":null,"size_class":null,"mass_kg":null,"dimensions":null,"purposes":["comms"],"wikipedia_slug":null,"has_3d_model":false,"image_url":null,"decayed_at":null,"tle_current":{"epoch":"2026-05-25T01:26:07.520928Z","epoch_age_seconds":66551,"freshness":"FRESH","line1":"1 65098U 25167W   26145.05980927  .00014290  00000+0  43315-3 0  9991","line2":"2 65098  53.1601  31.1324 0000981 104.1026 256.0086 15.34407718 45187","mean_motion":15.34407718,"eccentricity":9.81e-5,"inclination_deg":53.1601,"raan_deg":31.1324,"arg_perigee_deg":104.1026,"mean_anomaly_deg":256.0086,"bstar":0.00043315,"rev_number":4518,"period_min":93.847286031443,"perigee_km":462.00921660356,"apogee_km":463.35138495797,"semimajor_km":6840.8173007808,"source":"CELESTRAK","updated_at":"2026-05-25T13:38:20.686607Z"}}}